Information on these data can be found in provided Readme document
Contact Info: Zachary Fasnacht (zachary.fasnacht@ssaihq.com); Nickolay Krotkov (nickolay.a.krotkov@nasa.gov); Lok Lamsal (lok.lamsal@nasa.gov)

FillValue: -999.
ScaleFactor: 1e15
Units: molecules/cm^2

Date(yyyy-mm-dd),City,Country,LonCenter,LatCenter,BoundingCoordinates,Median,Q1,Q3,Mean,Baseline_Median,Baseline_Q1,Baseline_Q3,Baseline_Mean,NumGoodSamples,NumTotalSamples
2015-01-01,Asuncion,Paraguay,-57.6667,-25.2501,[-58.1667 -25.7501 -57.1667 -24.7501],0.594,0.126,0.977,0.603,0.624,0.13,1.045,0.628,205.0,530.0
2015-01-02,Asuncion,Paraguay,-57.6667,-25.2501,[-58.1667 -25.7501 -57.1667 -24.7501],0.547,0.016,1.139,0.632,0.635,0.105,1.101,0.647,172.0,534.0
2015-01-03,Asuncion,Paraguay,-57.6667,-25.2501,[-58.1667 -25.7501 -57.1667 -24.7501],0.615,0.153,1.152,0.684,0.668,0.105,1.13,0.651,200.0,527.0
2015-01-04,Asuncion,Paraguay,-57.6667,-25.2501,[-58.1667 -25.7501 -57.1667 -24.7501],0.609,0.16,1.264,0.698,0.644,0.075,1.149,0.635,186.0,554.0
2015-01-05,Asuncion,Paraguay,-57.6667,-25.2501,[-58.1667 -25.7501 -57.1667 -24.7501],0.609,0.136,1.264,0.725,0.602,0.085,1.157,0.618,192.0,536.0
2015-01-06,Asuncion,Paraguay,-57.6667,-25.2501,[-58.1667 -25.7501 -57.1667 -24.7501],0.531,0.127,1.139,0.664,0.566,0.054,1.098,0.599,202.0,543.0
2015-01-07,Asuncion,Paraguay,-57.6667,-25.2501,[-58.1667 -25.7501 -57.1667 -24.7501],0.531,0.127,1.139,0.668,0.555,0.016,1.11,0.576,205.0,545.0
2015-01-08,Asuncion,Paraguay,-57.6667,-25.2501,[-58.1667 -25.7501 -57.1667 -24.7501],0.547,0.16,1.148,0.693,0.523,0.008,1.06,0.563,205.0,531.0
2015-01-09,Asuncion,Paraguay,-57.6667,-25.2501,[-58.1667 -25.7501 -57.1667 -24.7501],0.607,0.16,1.264,0.718,0.565,0.01,1.123,0.587,195.0,498.0
2015-01-10,Asuncion,Paraguay,-57.6667,-25.2501,[-58.1667 -25.7501 -57.1667 -24.7501],0.656,0.16,1.201,0.71,0.555,0.056,1.132,0.592,219.0,479.0
2015-01-11,Asuncion,Paraguay,-57.6667,-25.2501,[-58.1667 -25.7501 -57.1667 -24.7501],0.669,0.171,1.228,0.72,0.543,0.048,1.13,0.589,215.0,496.0
2015-01-12,Asuncion,Paraguay,-57.6667,-25.2501,[-58.1667 -25.7501 -57.1667 -24.7501],0.556,0.136,1.079,0.654,0.508,0.034,1.108,0.574,211.0,484.0
2015-01-13,Asuncion,Paraguay,-57.6667,-25.2501,[-58.1667 -25.7501 -57.1667 -24.7501],0.556,0.115,1.09,0.631,0.498,0.022,1.101,0.563,223.0,507.0
2015-01-14,Asuncion,Paraguay,-57.6667,-25.2501,[-58.1667 -25.7501 -57.1667 -24.7501],0.556,0.113,1.056,0.606,0.496,0.019,1.051,0.538,205.0,499.0
2015-01-15,Asuncion,Paraguay,-57.6667,-25.2501,[-58.1667 -25.7501 -57.1667 -24.7501],0.556,0.102,1.05,0.609,0.505,0.038,1.035,0.55,218.0,493.0
2015-01-16,Asuncion,Paraguay,-57.6667,-25.2501,[-58.1667 -25.7501 -57.1667 -24.7501],0.566,0.115,1.056,0.638,0.508,0.044,1.042,0.57,217.0,508.0
2015-01-17,Asuncion,Paraguay,-57.6667,-25.2501,[-58.1667 -25.7501 -57.1667 -24.7501],0.566,0.115,1.056,0.638,0.512,0.041,1.043,0.576,217.0,482.0
2015-01-18,Asuncion,Paraguay,-57.6667,-25.2501,[-58.1667 -25.7501 -57.1667 -24.7501],0.539,0.031,1.056,0.585,0.515,0.033,1.032,0.56,182.0,488.0
2015-01-19,Asuncion,Paraguay,-57.6667,-25.2501,[-58.1667 -25.7501 -57.1667 -24.7501],0.539,0.102,0.944,0.589,0.518,0.065,1.007,0.56,215.0,480.0
2015-01-20,Asuncion,Paraguay,-57.6667,-25.2501,[-58.1667 -25.7501 -57.1667 -24.7501],0.556,0.084,0.944,0.562,0.518,0.033,0.996,0.55,203.0,508.0
2015-01-21,Asuncion,Paraguay,-57.6667,-25.2501,[-58.1667 -25.7501 -57.1667 -24.7501],0.556,0.089,0.944,0.583,0.541,0.059,1.017,0.576,175.0,489.0
2015-01-22,Asuncion,Paraguay,-57.6667,-25.2501,[-58.1667 -25.7501 -57.1667 -24.7501],0.559,0.102,0.948,0.583,0.534,0.072,1.015,0.582,178.0,495.0
2015-01-23,Asuncion,Paraguay,-57.6667,-25.2501,[-58.1667 -25.7501 -57.1667 -24.7501],0.556,0.106,0.941,0.566,0.607,0.118,1.105,0.651,196.0,498.0
2015-01-24,Asuncion,Paraguay,-57.6667,-25.2501,[-58.1667 -25.7501 -57.1667 -24.7501],0.528,0.075,0.944,0.549,0.633,0.124,1.18,0.668,222.0,528.0
2015-01-25,Asuncion,Paraguay,-57.6667,-25.2501,[-58.1667 -25.7501 -57.1667 -24.7501],0.497,0.056,0.868,0.525,0.631,0.133,1.198,0.7,206.0,537.0
2015-01-26,Asuncion,Paraguay,-57.6667,-25.2501,[-58.1667 -25.7501 -57.1667 -24.7501],0.516,0.046,0.95,0.6,0.639,0.148,1.202,0.708,228.0,519.0
2015-01-27,Asuncion,Paraguay,-57.6667,-25.2501,[-58.1667 -25.7501 -57.1667 -24.7501],0.559,0.075,1.218,0.69,0.676,0.168,1.336,0.755,198.0,537.0
2015-01-28,Asuncion,Paraguay,-57.6667,-25.2501,[-58.1667 -25.7501 -57.1667 -24.7501],0.575,0.075,1.149,0.71,0.701,0.188,1.333,0.8,204.0,523.0
2015-01-29,Asuncion,Paraguay,-57.6667,-25.2501,[-58.1667 -25.7501 -57.1667 -24.7501],0.58,0.089,1.218,0.747,0.712,0.179,1.359,0.812,218.0,546.0
2015-01-30,Asuncion,Paraguay,-57.6667,-25.2501,[-58.1667 -25.7501 -57.1667 -24.7501],0.624,0.147,1.328,0.777,0.794,0.23,1.506,0.88,202.0,541.0
2015-01-31,Asuncion,Paraguay,-57.6667,-25.2501,[-58.1667 -25.7501 -57.1667 -24.7501],0.623,0.139,1.299,0.753,0.763,0.218,1.419,0.829,211.0,535.0
2015-02-01,Asuncion,Paraguay,-57.6667,-25.2501,[-58.1667 -25.7501 -57.1667 -24.7501],0.623,0.136,1.252,0.74,0.764,0.22,1.41,0.846,231.0,548.0
2015-02-02,Asuncion,Paraguay,-57.6667,-25.2501,[-58.1667 -25.7501 -57.1667 -24.7501],0.64,0.147,1.299,0.763,0.762,0.265,1.435,0.86,250.0,522.0
2015-02-03,Asuncion,Paraguay,-57.6667,-25.2501,[-58.1667 -25.7501 -57.1667 -24.7501],0.752,0.079,1.38,0.802,0.801,0.245,1.459,0.884,215.0,530.0
2015-02-04,Asuncion,Paraguay,-57.6667,-25.2501,[-58.1667 -25.7501 -57.1667 -24.7501],0.752,0.079,1.38,0.803,0.829,0.245,1.531,0.901,212.0,524.0
2015-02-05,Asuncion,Paraguay,-57.6667,-25.2501,[-58.1667 -25.7501 -57.1667 -24.7501],0.748,0.074,1.362,0.796,0.847,0.24,1.544,0.893,218.0,554.0
2015-02-06,Asuncion,Paraguay,-57.6667,-25.2501,[-58.1667 -25.7501 -57.1667 -24.7501],0.748,0.074,1.38,0.795,0.831,0.198,1.566,0.899,212.0,536.0
2015-02-07,Asuncion,Paraguay,-57.6667,-25.2501,[-58.1667 -25.7501 -57.1667 -24.7501],0.773,-0.01,1.399,0.826,0.808,0.191,1.541,0.888,195.0,543.0
2015-02-08,Asuncion,Paraguay,-57.6667,-25.2501,[-58.1667 -25.7501 -57.1667 -24.7501],0.846,0.15,1.584,0.941,0.781,0.198,1.534,0.89,194.0,544.0
2015-02-09,Asuncion,Paraguay,-57.6667,-25.2501,[-58.1667 -25.7501 -57.1667 -24.7501],0.846,0.177,1.584,0.955,0.777,0.175,1.508,0.868,191.0,534.0
2015-02-10,Asuncion,Paraguay,-57.6667,-25.2501,[-58.1667 -25.7501 -57.1667 -24.7501],0.807,0.177,1.419,0.92,0.759,0.18,1.497,0.873,169.0,502.0
2015-02-11,Asuncion,Paraguay,-57.6667,-25.2501,[-58.1667 -25.7501 -57.1667 -24.7501],0.773,0.214,1.359,0.864,0.749,0.181,1.44,0.836,198.0,485.0
2015-02-12,Asuncion,Paraguay,-57.6667,-25.2501,[-58.1667 -25.7501 -57.1667 -24.7501],0.797,0.353,1.367,0.92,0.744,0.197,1.431,0.831,170.0,503.0
2015-02-13,Asuncion,Paraguay,-57.6667,-25.2501,[-58.1667 -25.7501 -57.1667 -24.7501],0.785,0.38,1.242,0.857,0.764,0.222,1.422,0.836,165.0,491.0
2015-02-14,Asuncion,Paraguay,-57.6667,-25.2501,[-58.1667 -25.7501 -57.1667 -24.7501],0.776,0.337,1.215,0.835,0.695,0.186,1.336,0.785,191.0,509.0
2015-02-15,Asuncion,Paraguay,-57.6667,-25.2501,[-58.1667 -25.7501 -57.1667 -24.7501],0.763,0.235,1.186,0.769,0.705,0.154,1.4,0.786,172.0,502.0
2015-02-16,Asuncion,Paraguay,-57.6667,-25.2501,[-58.1667 -25.7501 -57.1667 -24.7501],0.763,0.214,1.203,0.8,0.665,0.152,1.373,0.775,170.0,498.0
2015-02-17,Asuncion,Paraguay,-57.6667,-25.2501,[-58.1667 -25.7501 -57.1667 -24.7501],0.751,0.206,1.203,0.757,0.697,0.117,1.394,0.769,170.0,513.0
2015-02-18,Asuncion,Paraguay,-57.6667,-25.2501,[-58.1667 -25.7501 -57.1667 -24.7501],0.748,0.124,1.191,0.708,0.701,0.116,1.401,0.753,189.0,485.0
2015-02-19,Asuncion,Paraguay,-57.6667,-25.2501,[-58.1667 -25.7501 -57.1667 -24.7501],0.748,0.124,1.191,0.708,0.689,0.085,1.398,0.745,189.0,488.0
2015-02-20,Asuncion,Paraguay,-57.6667,-25.2501,[-58.1667 -25.7501 -57.1667 -24.7501],0.748,0.158,1.203,0.722,0.707,0.07,1.389,0.731,185.0,480.0
2015-02-21,Asuncion,Paraguay,-57.6667,-25.2501,[-58.1667 -25.7501 -57.1667 -24.7501],0.74,0.124,1.191,0.713,0.707,0.085,1.366,0.74,191.0,507.0
2015-02-22,Asuncion,Paraguay,-57.6667,-25.2501,[-58.1667 -25.7501 -57.1667 -24.7501],0.633,0.122,1.153,0.689,0.643,0.056,1.328,0.722,189.0,489.0
2015-02-23,Asuncion,Paraguay,-57.6667,-25.2501,[-58.1667 -25.7501 -57.1667 -24.7501],0.625,0.091,1.071,0.597,0.668,0.085,1.31,0.712,178.0,498.0
2015-02-24,Asuncion,Paraguay,-57.6667,-25.2501,[-58.1667 -25.7501 -57.1667 -24.7501],0.599,0.047,1.028,0.571,0.667,0.069,1.272,0.699,189.0,498.0
2015-02-25,Asuncion,Paraguay,-57.6667,-25.2501,[-58.1667 -25.7501 -57.1667 -24.7501],0.609,0.091,1.028,0.577,0.66,0.073,1.257,0.695,191.0,529.0
2015-02-26,Asuncion,Paraguay,-57.6667,-25.2501,[-58.1667 -25.7501 -57.1667 -24.7501],0.599,-0.008,1.071,0.56,0.662,0.081,1.297,0.709,162.0,538.0
2015-02-27,Asuncion,Paraguay,-57.6667,-25.2501,[-58.1667 -25.7501 -57.1667 -24.7501],0.657,0.122,1.146,0.646,0.66,0.102,1.254,0.697,187.0,520.0
2015-02-28,Asuncion,Paraguay,-57.6667,-25.2501,[-58.1667 -25.7501 -57.1667 -24.7501],0.628,0.091,1.179,0.634,0.687,0.101,1.25,0.691,170.0,538.0
2015-03-01,Asuncion,Paraguay,-57.6667,-25.2501,[-58.1667 -25.7501 -57.1667 -24.7501],0.655,0.122,1.179,0.639,0.676,0.079,1.245,0.684,165.0,527.0
2015-03-02,Asuncion,Paraguay,-57.6667,-25.2501,[-58.1667 -25.7501 -57.1667 -24.7501],0.7,0.173,1.246,0.771,0.726,0.148,1.27,0.735,191.0,548.0
2015-03-03,Asuncion,Paraguay,-57.6667,-25.2501,[-58.1667 -25.7501 -57.1667 -24.7501],0.748,0.173,1.228,0.759,0.748,0.118,1.267,0.721,183.0,542.0
2015-03-04,Asuncion,Paraguay,-57.6667,-25.2501,[-58.1667 -25.7501 -57.1667 -24.7501],0.7,0.173,1.228,0.759,0.697,0.113,1.205,0.707,189.0,537.0
2015-03-05,Asuncion,Paraguay,-57.6667,-25.2501,[-58.1667 -25.7501 -57.1667 -24.7501],0.763,0.27,1.287,0.862,0.715,0.145,1.254,0.743,189.0,552.0
2015-03-06,Asuncion,Paraguay,-57.6667,-25.2501,[-58.1667 -25.7501 -57.1667 -24.7501],0.763,0.296,1.232,0.843,0.728,0.17,1.237,0.762,208.0,527.0
2015-03-07,Asuncion,Paraguay,-57.6667,-25.2501,[-58.1667 -25.7501 -57.1667 -24.7501],0.757,0.294,1.232,0.838,0.717,0.188,1.215,0.772,206.0,534.0
2015-03-08,Asuncion,Paraguay,-57.6667,-25.2501,[-58.1667 -25.7501 -57.1667 -24.7501],0.769,0.404,1.214,0.828,0.726,0.227,1.242,0.779,235.0,527.0
2015-03-09,Asuncion,Paraguay,-57.6667,-25.2501,[-58.1667 -25.7501 -57.1667 -24.7501],0.787,0.424,1.228,0.851,0.732,0.231,1.229,0.77,237.0,556.0
2015-03-10,Asuncion,Paraguay,-57.6667,-25.2501,[-58.1667 -25.7501 -57.1667 -24.7501],0.787,0.436,1.216,0.857,0.721,0.234,1.216,0.767,242.0,537.0
2015-03-11,Asuncion,Paraguay,-57.6667,-25.2501,[-58.1667 -25.7501 -57.1667 -24.7501],0.817,0.478,1.276,0.907,0.715,0.251,1.175,0.756,255.0,544.0
2015-03-12,Asuncion,Paraguay,-57.6667,-25.2501,[-58.1667 -25.7501 -57.1667 -24.7501],0.862,0.478,1.283,0.924,0.716,0.261,1.15,0.746,276.0,545.0
2015-03-13,Asuncion,Paraguay,-57.6667,-25.2501,[-58.1667 -25.7501 -57.1667 -24.7501],0.862,0.478,1.276,0.915,0.745,0.286,1.184,0.759,299.0,533.0
2015-03-14,Asuncion,Paraguay,-57.6667,-25.2501,[-58.1667 -25.7501 -57.1667 -24.7501],0.865,0.404,1.276,0.903,0.74,0.228,1.18,0.743,274.0,501.0
2015-03-15,Asuncion,Paraguay,-57.6667,-25.2501,[-58.1667 -25.7501 -57.1667 -24.7501],0.757,0.19,1.235,0.819,0.678,0.151,1.148,0.704,303.0,482.0
2015-03-16,Asuncion,Paraguay,-57.6667,-25.2501,[-58.1667 -25.7501 -57.1667 -24.7501],0.769,0.27,1.263,0.838,0.67,0.19,1.134,0.7,273.0,500.0
2015-03-17,Asuncion,Paraguay,-57.6667,-25.2501,[-58.1667 -25.7501 -57.1667 -24.7501],0.803,0.369,1.314,0.838,0.678,0.22,1.144,0.708,268.0,489.0
2015-03-18,Asuncion,Paraguay,-57.6667,-25.2501,[-58.1667 -25.7501 -57.1667 -24.7501],0.817,0.348,1.363,0.873,0.696,0.229,1.168,0.74,293.0,509.0
2015-03-19,Asuncion,Paraguay,-57.6667,-25.2501,[-58.1667 -25.7501 -57.1667 -24.7501],0.885,0.392,1.37,0.886,0.721,0.277,1.185,0.745,268.0,503.0
2015-03-20,Asuncion,Paraguay,-57.6667,-25.2501,[-58.1667 -25.7501 -57.1667 -24.7501],0.817,0.379,1.33,0.855,0.679,0.232,1.151,0.717,249.0,498.0
2015-03-21,Asuncion,Paraguay,-57.6667,-25.2501,[-58.1667 -25.7501 -57.1667 -24.7501],0.885,0.379,1.393,0.871,0.693,0.202,1.167,0.717,230.0,513.0
2015-03-22,Asuncion,Paraguay,-57.6667,-25.2501,[-58.1667 -25.7501 -57.1667 -24.7501],0.885,0.379,1.393,0.871,0.707,0.239,1.163,0.713,230.0,485.0
2015-03-23,Asuncion,Paraguay,-57.6667,-25.2501,[-58.1667 -25.7501 -57.1667 -24.7501],0.903,0.315,1.5,0.903,0.69,0.209,1.179,0.71,195.0,491.0
2015-03-24,Asuncion,Paraguay,-57.6667,-25.2501,[-58.1667 -25.7501 -57.1667 -24.7501],0.903,0.324,1.45,0.897,0.676,0.167,1.176,0.707,187.0,479.0
2015-03-25,Asuncion,Paraguay,-57.6667,-25.2501,[-58.1667 -25.7501 -57.1667 -24.7501],1.0,0.199,1.5,0.905,0.682,0.161,1.192,0.707,178.0,507.0
2015-03-26,Asuncion,Paraguay,-57.6667,-25.2501,[-58.1667 -25.7501 -57.1667 -24.7501],0.817,0.142,1.394,0.848,0.655,0.117,1.196,0.717,168.0,490.0
2015-03-27,Asuncion,Paraguay,-57.6667,-25.2501,[-58.1667 -25.7501 -57.1667 -24.7501],0.792,0.061,1.37,0.751,0.675,0.106,1.237,0.719,176.0,495.0
2015-03-28,Asuncion,Paraguay,-57.6667,-25.2501,[-58.1667 -25.7501 -57.1667 -24.7501],0.794,0.061,1.393,0.746,0.616,0.056,1.196,0.673,153.0,496.0
2015-03-29,Asuncion,Paraguay,-57.6667,-25.2501,[-58.1667 -25.7501 -57.1667 -24.7501],0.794,0.061,1.393,0.746,0.63,0.038,1.217,0.686,154.0,523.0
2015-03-30,Asuncion,Paraguay,-57.6667,-25.2501,[-58.1667 -25.7501 -57.1667 -24.7501],1.0,0.241,1.5,0.9,0.69,0.058,1.278,0.736,132.0,532.0
2015-03-31,Asuncion,Paraguay,-57.6667,-25.2501,[-58.1667 -25.7501 -57.1667 -24.7501],0.945,0.142,1.5,0.795,0.714,0.023,1.323,0.713,158.0,515.0
2015-04-01,Asuncion,Paraguay,-57.6667,-25.2501,[-58.1667 -25.7501 -57.1667 -24.7501],0.648,0.018,1.324,0.639,0.665,0.031,1.282,0.687,129.0,531.0
2015-04-02,Asuncion,Paraguay,-57.6667,-25.2501,[-58.1667 -25.7501 -57.1667 -24.7501],0.792,0.11,1.604,0.772,0.656,0.022,1.293,0.674,104.0,519.0
2015-04-03,Asuncion,Paraguay,-57.6667,-25.2501,[-58.1667 -25.7501 -57.1667 -24.7501],0.803,0.11,1.739,0.889,0.658,0.021,1.292,0.689,138.0,536.0
2015-04-04,Asuncion,Paraguay,-57.6667,-25.2501,[-58.1667 -25.7501 -57.1667 -24.7501],0.845,0.105,1.771,0.885,0.672,0.053,1.343,0.698,148.0,531.0
2015-04-05,Asuncion,Paraguay,-57.6667,-25.2501,[-58.1667 -25.7501 -57.1667 -24.7501],0.845,0.066,1.899,0.891,0.685,0.007,1.362,0.701,161.0,526.0
2015-04-06,Asuncion,Paraguay,-57.6667,-25.2501,[-58.1667 -25.7501 -57.1667 -24.7501],0.845,0.066,1.899,0.891,0.674,-0.021,1.436,0.712,161.0,541.0
2015-04-07,Asuncion,Paraguay,-57.6667,-25.2501,[-58.1667 -25.7501 -57.1667 -24.7501],0.845,0.066,1.899,0.891,0.68,-0.0,1.41,0.71,161.0,515.0
2015-04-08,Asuncion,Paraguay,-57.6667,-25.2501,[-58.1667 -25.7501 -57.1667 -24.7501],0.845,0.066,1.899,0.891,0.685,-0.014,1.387,0.709,161.0,524.0
2015-04-09,Asuncion,Paraguay,-57.6667,-25.2501,[-58.1667 -25.7501 -57.1667 -24.7501],0.694,0.142,1.504,0.838,0.653,-0.015,1.342,0.698,184.0,515.0
2015-04-10,Asuncion,Paraguay,-57.6667,-25.2501,[-58.1667 -25.7501 -57.1667 -24.7501],0.845,0.22,1.604,0.848,0.703,0.033,1.394,0.725,165.0,544.0
2015-04-11,Asuncion,Paraguay,-57.6667,-25.2501,[-58.1667 -25.7501 -57.1667 -24.7501],0.866,0.229,1.687,0.92,0.701,0.024,1.403,0.733,134.0,528.0
2015-04-12,Asuncion,Paraguay,-57.6667,-25.2501,[-58.1667 -25.7501 -57.1667 -24.7501],0.865,0.22,1.504,0.841,0.708,0.021,1.365,0.727,157.0,535.0
2015-04-13,Asuncion,Paraguay,-57.6667,-25.2501,[-58.1667 -25.7501 -57.1667 -24.7501],0.865,0.22,1.504,0.843,0.706,0.021,1.374,0.723,157.0,540.0
2015-04-14,Asuncion,Paraguay,-57.6667,-25.2501,[-58.1667 -25.7501 -57.1667 -24.7501],0.865,0.22,1.504,0.856,0.681,0.015,1.34,0.708,152.0,529.0
2015-04-15,Asuncion,Paraguay,-57.6667,-25.2501,[-58.1667 -25.7501 -57.1667 -24.7501],0.916,0.244,1.507,0.966,0.679,0.024,1.362,0.742,126.0,496.0
2015-04-16,Asuncion,Paraguay,-57.6667,-25.2501,[-58.1667 -25.7501 -57.1667 -24.7501],0.726,0.19,1.504,0.852,0.644,0.019,1.416,0.736,157.0,480.0
2015-04-17,Asuncion,Paraguay,-57.6667,-25.2501,[-58.1667 -25.7501 -57.1667 -24.7501],0.575,-0.009,1.4,0.708,0.623,-0.016,1.393,0.711,147.0,498.0
2015-04-18,Asuncion,Paraguay,-57.6667,-25.2501,[-58.1667 -25.7501 -57.1667 -24.7501],0.675,-0.009,1.504,0.712,0.642,-0.015,1.453,0.721,144.0,488.0
2015-04-19,Asuncion,Paraguay,-57.6667,-25.2501,[-58.1667 -25.7501 -57.1667 -24.7501],0.639,-0.009,1.419,0.69,0.634,-0.032,1.443,0.705,168.0,508.0
2015-04-20,Asuncion,Paraguay,-57.6667,-25.2501,[-58.1667 -25.7501 -57.1667 -24.7501],0.675,-0.009,1.4,0.678,0.639,-0.02,1.446,0.716,156.0,501.0
2015-04-21,Asuncion,Paraguay,-57.6667,-25.2501,[-58.1667 -25.7501 -57.1667 -24.7501],0.617,-0.009,1.504,0.703,0.613,-0.039,1.434,0.685,184.0,494.0
2015-04-22,Asuncion,Paraguay,-57.6667,-25.2501,[-58.1667 -25.7501 -57.1667 -24.7501],0.675,-0.02,1.419,0.684,0.636,-0.039,1.417,0.69,207.0,510.0
2015-04-23,Asuncion,Paraguay,-57.6667,-25.2501,[-58.1667 -25.7501 -57.1667 -24.7501],0.675,-0.057,1.406,0.679,0.613,-0.055,1.406,0.678,226.0,484.0
2015-04-24,Asuncion,Paraguay,-57.6667,-25.2501,[-58.1667 -25.7501 -57.1667 -24.7501],0.675,-0.22,1.549,0.672,0.611,-0.08,1.434,0.684,193.0,493.0
2015-04-25,Asuncion,Paraguay,-57.6667,-25.2501,[-58.1667 -25.7501 -57.1667 -24.7501],0.617,-0.122,1.328,0.62,0.544,-0.105,1.305,0.622,233.0,486.0
2015-04-26,Asuncion,Paraguay,-57.6667,-25.2501,[-58.1667 -25.7501 -57.1667 -24.7501],0.602,-0.122,1.328,0.616,0.569,-0.072,1.425,0.652,236.0,515.0
2015-04-27,Asuncion,Paraguay,-57.6667,-25.2501,[-58.1667 -25.7501 -57.1667 -24.7501],0.739,-0.086,1.456,0.686,0.663,-0.039,1.531,0.705,232.0,498.0
2015-04-28,Asuncion,Paraguay,-57.6667,-25.2501,[-58.1667 -25.7501 -57.1667 -24.7501],0.739,-0.073,1.548,0.717,0.693,-0.021,1.578,0.735,261.0,504.0
2015-04-29,Asuncion,Paraguay,-57.6667,-25.2501,[-58.1667 -25.7501 -57.1667 -24.7501],0.739,-0.048,1.551,0.742,0.708,-0.007,1.579,0.757,286.0,504.0
2015-04-30,Asuncion,Paraguay,-57.6667,-25.2501,[-58.1667 -25.7501 -57.1667 -24.7501],0.739,-0.086,1.583,0.721,0.73,-0.007,1.547,0.741,306.0,535.0
2015-05-01,Asuncion,Paraguay,-57.6667,-25.2501,[-58.1667 -25.7501 -57.1667 -24.7501],0.749,-0.076,1.639,0.753,0.71,-0.016,1.555,0.75,279.0,544.0
2015-05-02,Asuncion,Paraguay,-57.6667,-25.2501,[-58.1667 -25.7501 -57.1667 -24.7501],0.749,-0.076,1.639,0.753,0.759,-0.016,1.544,0.751,279.0,528.0
2015-05-03,Asuncion,Paraguay,-57.6667,-25.2501,[-58.1667 -25.7501 -57.1667 -24.7501],0.749,-0.086,1.406,0.687,0.734,-0.004,1.474,0.729,248.0,547.0
2015-05-04,Asuncion,Paraguay,-57.6667,-25.2501,[-58.1667 -25.7501 -57.1667 -24.7501],0.646,-0.018,1.179,0.642,0.715,0.031,1.406,0.723,245.0,533.0
2015-05-05,Asuncion,Paraguay,-57.6667,-25.2501,[-58.1667 -25.7501 -57.1667 -24.7501],0.685,0.026,1.185,0.67,0.73,0.051,1.382,0.722,279.0,552.0
2015-05-06,Asuncion,Paraguay,-57.6667,-25.2501,[-58.1667 -25.7501 -57.1667 -24.7501],0.692,0.031,1.197,0.682,0.745,0.064,1.398,0.742,262.0,547.0
2015-05-07,Asuncion,Paraguay,-57.6667,-25.2501,[-58.1667 -25.7501 -57.1667 -24.7501],0.692,0.051,1.22,0.698,0.728,0.09,1.374,0.721,239.0,543.0
2015-05-08,Asuncion,Paraguay,-57.6667,-25.2501,[-58.1667 -25.7501 -57.1667 -24.7501],0.687,0.056,1.185,0.705,0.725,0.086,1.358,0.713,220.0,559.0
2015-05-09,Asuncion,Paraguay,-57.6667,-25.2501,[-58.1667 -25.7501 -57.1667 -24.7501],0.689,0.056,1.185,0.709,0.694,0.106,1.337,0.713,230.0,531.0
2015-05-10,Asuncion,Paraguay,-57.6667,-25.2501,[-58.1667 -25.7501 -57.1667 -24.7501],0.743,0.142,1.404,0.793,0.712,0.131,1.433,0.742,190.0,536.0
2015-05-11,Asuncion,Paraguay,-57.6667,-25.2501,[-58.1667 -25.7501 -57.1667 -24.7501],0.869,0.256,1.531,0.884,0.705,0.122,1.412,0.74,223.0,531.0
2015-05-12,Asuncion,Paraguay,-57.6667,-25.2501,[-58.1667 -25.7501 -57.1667 -24.7501],0.819,0.214,1.531,0.878,0.655,0.12,1.346,0.71,209.0,558.0
2015-05-13,Asuncion,Paraguay,-57.6667,-25.2501,[-58.1667 -25.7501 -57.1667 -24.7501],0.74,0.212,1.408,0.808,0.62,0.086,1.315,0.683,197.0,541.0
2015-05-14,Asuncion,Paraguay,-57.6667,-25.2501,[-58.1667 -25.7501 -57.1667 -24.7501],0.74,0.212,1.266,0.763,0.618,0.096,1.296,0.678,200.0,549.0
2015-05-15,Asuncion,Paraguay,-57.6667,-25.2501,[-58.1667 -25.7501 -57.1667 -24.7501],0.74,0.256,1.238,0.798,0.605,0.09,1.301,0.682,180.0,547.0
2015-05-16,Asuncion,Paraguay,-57.6667,-25.2501,[-58.1667 -25.7501 -57.1667 -24.7501],0.724,0.212,1.237,0.764,0.584,0.067,1.285,0.667,184.0,533.0
2015-05-17,Asuncion,Paraguay,-57.6667,-25.2501,[-58.1667 -25.7501 -57.1667 -24.7501],0.724,0.212,1.237,0.764,0.58,0.086,1.305,0.657,184.0,499.0
2015-05-18,Asuncion,Paraguay,-57.6667,-25.2501,[-58.1667 -25.7501 -57.1667 -24.7501],0.724,0.212,1.237,0.764,0.6,0.068,1.321,0.658,184.0,480.0
2015-05-19,Asuncion,Paraguay,-57.6667,-25.2501,[-58.1667 -25.7501 -57.1667 -24.7501],0.878,0.337,1.531,0.895,0.623,0.079,1.354,0.667,153.0,500.0
2015-05-20,Asuncion,Paraguay,-57.6667,-25.2501,[-58.1667 -25.7501 -57.1667 -24.7501],0.878,0.328,1.513,0.862,0.607,0.075,1.326,0.65,118.0,490.0
2015-05-21,Asuncion,Paraguay,-57.6667,-25.2501,[-58.1667 -25.7501 -57.1667 -24.7501],0.813,0.214,1.408,0.811,0.603,0.043,1.331,0.649,141.0,511.0
2015-05-22,Asuncion,Paraguay,-57.6667,-25.2501,[-58.1667 -25.7501 -57.1667 -24.7501],0.774,0.11,1.283,0.756,0.598,-0.015,1.315,0.646,147.0,501.0
2015-05-23,Asuncion,Paraguay,-57.6667,-25.2501,[-58.1667 -25.7501 -57.1667 -24.7501],0.774,0.11,1.346,0.771,0.583,-0.011,1.326,0.648,149.0,494.0
2015-05-24,Asuncion,Paraguay,-57.6667,-25.2501,[-58.1667 -25.7501 -57.1667 -24.7501],0.788,0.11,1.303,0.756,0.594,0.007,1.322,0.644,143.0,510.0
2015-05-25,Asuncion,Paraguay,-57.6667,-25.2501,[-58.1667 -25.7501 -57.1667 -24.7501],0.798,0.11,1.303,0.757,0.578,-0.022,1.326,0.633,144.0,483.0
2015-05-26,Asuncion,Paraguay,-57.6667,-25.2501,[-58.1667 -25.7501 -57.1667 -24.7501],0.54,-0.127,1.067,0.47,0.487,-0.083,1.27,0.564,108.0,486.0
2015-05-27,Asuncion,Paraguay,-57.6667,-25.2501,[-58.1667 -25.7501 -57.1667 -24.7501],0.328,-0.156,0.833,0.364,0.435,-0.182,1.187,0.49,121.0,481.0
2015-05-28,Asuncion,Paraguay,-57.6667,-25.2501,[-58.1667 -25.7501 -57.1667 -24.7501],0.254,-0.199,0.839,0.342,0.407,-0.192,1.183,0.475,110.0,507.0
2015-05-29,Asuncion,Paraguay,-57.6667,-25.2501,[-58.1667 -25.7501 -57.1667 -24.7501],0.289,-0.199,0.84,0.295,0.421,-0.159,1.144,0.445,99.0,489.0
2015-05-30,Asuncion,Paraguay,-57.6667,-25.2501,[-58.1667 -25.7501 -57.1667 -24.7501],0.31,-0.199,0.885,0.333,0.425,-0.158,1.15,0.446,127.0,499.0
2015-05-31,Asuncion,Paraguay,-57.6667,-25.2501,[-58.1667 -25.7501 -57.1667 -24.7501],0.473,-0.199,1.022,0.422,0.446,-0.182,1.138,0.446,145.0,500.0
2015-06-01,Asuncion,Paraguay,-57.6667,-25.2501,[-58.1667 -25.7501 -57.1667 -24.7501],0.527,-0.184,1.206,0.527,0.474,-0.177,1.173,0.489,173.0,530.0
2015-06-02,Asuncion,Paraguay,-57.6667,-25.2501,[-58.1667 -25.7501 -57.1667 -24.7501],0.527,-0.189,1.206,0.509,0.468,-0.145,1.09,0.472,183.0,540.0
2015-06-03,Asuncion,Paraguay,-57.6667,-25.2501,[-58.1667 -25.7501 -57.1667 -24.7501],0.505,-0.102,1.17,0.52,0.442,-0.167,1.11,0.468,212.0,521.0
2015-06-04,Asuncion,Paraguay,-57.6667,-25.2501,[-58.1667 -25.7501 -57.1667 -24.7501],0.505,-0.102,1.17,0.52,0.436,-0.171,1.119,0.473,212.0,537.0
2015-06-05,Asuncion,Paraguay,-57.6667,-25.2501,[-58.1667 -25.7501 -57.1667 -24.7501],0.505,-0.03,1.224,0.556,0.45,-0.134,1.174,0.498,206.0,524.0
2015-06-06,Asuncion,Paraguay,-57.6667,-25.2501,[-58.1667 -25.7501 -57.1667 -24.7501],0.517,-0.029,1.227,0.583,0.445,-0.145,1.107,0.479,200.0,547.0
2015-06-07,Asuncion,Paraguay,-57.6667,-25.2501,[-58.1667 -25.7501 -57.1667 -24.7501],0.505,-0.029,1.227,0.573,0.491,-0.084,1.161,0.526,198.0,539.0
2015-06-08,Asuncion,Paraguay,-57.6667,-25.2501,[-58.1667 -25.7501 -57.1667 -24.7501],0.527,-0.014,1.227,0.587,0.493,-0.078,1.168,0.521,220.0,532.0
2015-06-09,Asuncion,Paraguay,-57.6667,-25.2501,[-58.1667 -25.7501 -57.1667 -24.7501],0.527,0.007,1.233,0.595,0.504,-0.087,1.172,0.514,227.0,546.0
2015-06-10,Asuncion,Paraguay,-57.6667,-25.2501,[-58.1667 -25.7501 -57.1667 -24.7501],0.527,0.007,1.233,0.595,0.499,-0.082,1.146,0.514,227.0,519.0
2015-06-11,Asuncion,Paraguay,-57.6667,-25.2501,[-58.1667 -25.7501 -57.1667 -24.7501],0.596,0.078,1.357,0.664,0.578,-0.001,1.204,0.587,209.0,523.0
2015-06-12,Asuncion,Paraguay,-57.6667,-25.2501,[-58.1667 -25.7501 -57.1667 -24.7501],0.669,0.097,1.334,0.688,0.601,0.01,1.206,0.603,238.0,520.0